Temperature
16 16 15 15 15 15 15 15 15 15 15 15 15 15 15 15 15 15 15 15 15 15 15 15 15 15 15 15 15 15 15 15 15 15 16 16 15 16 16 16 16 16 16
16 16 15 15 15 15 15 15 15 15 15 15 15 15 15 15 15 15 15 15 15 15 15 15 15 15 15 15 15 15 15 15 15 15 15 15 15 15 15 16 16 16 16
16 16 15 15 15 15 15 15 15 15 15 15 15 15 15 15 15 15 14 14 14 14 14 15 15 15 15 15 15 15 15 15 15 15 15 15 15 15 15 15 15 15 15
15 15 15 15 15 15 15 15 15 15 15 15 15 15 15 15 15 15 15 14 14 14 14 14 14 14 14 14 14 14 14 14 14 14 14 14 15 15 15 15 15 15 15
15 15 15 15 15 15 14 14 14 14 14 15 15 15 15 15 15 14 14 14 14 14 14 14 14 14 14 14 14 14 14 14 14 14 14 14 14 14 14 14 15 15 15
15 15 15 14 14 14 14 14 14 14 14 14 14 14 15 15 14 14 14 14 14 14 14 14 14 14 14 14 14 14 14 14 14 14 14 14 14 14 14 14 14 14 14
15 15 14 14 14 14 14 14 14 14 14 14 14 14 14 14 14 14 14 14 14 14 13 13 13 13 14 13 13 14 14 14 14 14 14 14 14 14 14 14 14 14 14
14 14 14 14 14 14 14 14 14 14 14 14 14 14 14 14 14 14 14 14 14 13 13 13 13 13 13 13 13 13 13 13 14 13 14 14 14 14 13 14 13 14 14
14 14 14 14 14 14 13 13 13 13 13 13 14 14 14 14 14 14 14 13 13 13 13 13 13 13 13 13 13 13 13 13 13 13 13 13 13 13 13 13 13 13 13
14 14 13 13 13 13 13 13 13 13 13 13 13 13 13 13 13 13 13 13 13 13 13 13 13 13 13 13 13 13 13 13 13 13 13 13 13 13 13 13 13 13 13
13 13 13 13 13 13 13 13 13 13 13 13 13 13 13 13 13 13 13 13 13 13 13 13 12 13 13 13 13 13 13 13 13 13 13 13 13 13 13 13 13 13 13
13 13 13 13 13 13 13 13 13 13 12 12 12 12 13 13 13 13 13 13 13 13 13 12 12 12 12 13 12 12 12 12 13 13 13 13 13 13 13 13 13 13 13
13 13 13 13 13 12 12 12 12 12 12 12 12 12 12 12 12 13 13 12 12 12 12 12 12 12 12 12 12 12 12 12 12 12 13 12 12 12 12 12 12 12 12
13 13 12 12 12 12 12 12 12 12 12 12 12 12 12 12 12 12 12 12 12 12 12 12 12 12 12 12 12 12 12 12 12 12 12 12 12 12 12 12 12 12 12
13 12 12 12 12 12 12 12 12 12 12 11 11 11 11 12 12 12 12 12 12 12 12 12 12 12 12 12 12 12 12 12 12 12 12 12 12 12 12 12 12 12 12
13 12 12 12 12 12 11 11 11 11 11 11 11 11 11 11 11 11 11 11 11 11 11 11 11 11 11 11 11 11 12 11 11 11 11 12 12 12 12 12 12 12 12
12 12 12 12 12 11 11 11 11 11 11 11 11 11 11 11 11 11 11 11 11 11 11 11 11 11 11 11 11 11 11 11 11 11 11 11 11 11 11 11 11 11 11
12 12 12 11 11 11 11 11 11 11 10 10 11 10 10 10 10 10 10 10 11 11 11 11 11 11 11 10 11 11 11 11 11 11 11 11 11 11 11 11 11 11 11
12 12 11 11 11 11 11 11 10 10 10 10 10 10 10 10 10 10 10 10 10 10 10 10 10 10 10 10 10 10 10 10 10 10 10 10 10 11 11 11 11 11 11
12 11 11 11 11 11 10 10 10 10 10 10 10 10 10 10 10 10 10 10 10 10 10 10 10 10 10 10 10 10 10 10 10 10 10 10 10 10 10 10 10 10 10
11 11 11 11 10 10 10 10 10 10 10 10 10 9 9 9 9 9 9 9 9 9 9 9 9 9 9 9 9 9 10 10 10 10 10 10 10 10 10 10 10 10 10
11 11 11 10 10 10 10 10 10 10 10 10 9 9 9 9 9 9 9 9 9 9 9 9 9 9 9 9 9 9 9 9 9 9 9 10 10 10 10 10 10 10 10
11 11 10 10 10 10 10 9 9 9 9 9 9 9 9 9 9 9 9 9 9 9 9 9 9 9 9 9 9 9 9 9 9 9 9 9 9 9 9 9 10 10 10
11 10 10 10 10 9 9 9 9 9 9 9 9 9 9 9 9 9 9 9 8 8 8 8 9 9 9 9 9 9 9 9 9 9 9 9 9 9 9 9 9 9 9
10 10 10 9 9 9 9 9 9 9 9 9 9 9 9 9 9 9 8 8 8 8 8 8 8 8 8 8 8 8 8 8 8 8 8 8 9 9 9 9 9 9 9
10 10 9 9 9 9 9 9 9 9 9 8 8 8 8 8 8 8 8 8 8 8 8 8 8 8 8 8 8 8 8 8 8 8 8 8 8 8 8 8 9 9 9
Wind_Speed
2 2 2 2 3 3 2 1 2 4 4 4 4 5 5 6 6 6 7 9 10 9 9 9 9 9 9 9 9 9 9 9 8 8 7 7 7 7 6 7 6 6 5
2 2 3 3 3 3 3 2 3 3 3 3 3 4 4 4 5 6 7 8 9 9 9 8 8 8 9 9 8 8 8 8 8 7 6 6 6 6 7 6 6 6 5
3 3 3 3 2 4 4 3 4 3 3 3 3 3 3 3 3 5 6 6 7 7 8 8 9 8 8 9 8 8 8 8 8 7 6 5 5 6 6 6 6 6 5
5 4 3 3 4 4 3 3 3 3 3 3 2 2 1 2 2 3 4 6 6 6 6 7 7 8 8 9 8 8 8 8 8 7 6 6 5 6 6 6 6 7 6
6 5 3 2 4 3 3 3 3 2 2 2 2 1 1 2 2 3 3 4 5 6 6 6 6 6 7 7 8 7 7 7 7 7 7 7 6 6 6 6 7 8 8
6 5 3 3 4 3 3 3 2 2 1 1 2 1 0 0 2 3 3 3 3 5 5 5 5 5 6 7 7 7 7 6 7 7 7 7 6 6 6 7 8 8 9
6 4 3 2 3 3 2 2 2 2 1 1 2 2 1 1 2 2 2 2 3 4 4 4 5 5 5 6 7 7 7 7 6 7 7 7 7 7 7 7 7 8 8
4 3 3 2 3 2 3 3 2 2 2 1 1 1 2 2 2 1 1 1 2 3 3 4 4 5 6 5 6 7 7 7 6 6 6 6 6 6 6 6 6 6 7
4 4 3 2 2 2 1 1 2 2 1 2 2 1 1 0 2 1 0 2 2 2 2 3 5 6 6 6 6 6 6 6 6 6 6 6 5 5 5 5 6 6 5
3 2 2 1 1 2 2 1 2 1 1 1 2 2 1 1 0 2 2 2 2 2 2 3 4 5 6 7 7 6 5 5 5 5 6 5 5 5 5 4 4 5 5
2 2 2 2 1 2 1 2 2 2 1 1 1 1 2 2 1 1 1 2 2 2 2 2 3 4 5 6 6 6 5 5 5 5 5 5 5 5 4 4 4 4 4
1 1 1 1 1 1 1 1 1 1 1 2 2 1 1 1 1 0 1 1 0 0 1 2 2 3 4 5 4 4 4 5 4 4 4 5 4 4 4 3 3 3 4
1 2 1 1 1 1 1 1 1 0 0 1 1 1 1 1 1 1 0 1 1 1 0 1 1 3 3 5 4 3 3 4 4 4 4 4 4 4 3 3 3 3 3
2 2 2 2 2 1 1 1 0 0 0 0 1 1 1 1 1 1 0 0 1 1 0 0 0 2 3 4 2 2 3 3 3 2 2 3 3 4 4 3 3 3 4
2 2 2 2 2 2 2 2 0 0 0 1 1 1 0 1 1 1 1 1 0 1 2 1 0 0 3 3 2 2 2 3 3 2 2 1 1 1 2 2 3 3 3
3 3 3 2 2 2 2 1 1 0 1 0 1 1 0 1 0 1 1 1 1 1 2 1 1 1 1 2 2 1 2 2 4 4 3 2 1 1 1 1 1 1 2
3 3 3 2 3 3 2 2 2 2 2 2 2 1 1 0 0 1 1 1 1 0 1 2 1 1 1 1 1 1 2 2 3 4 5 4 3 2 2 1 2 1 1
4 3 2 2 3 3 3 3 3 2 2 2 3 2 2 1 1 1 1 1 2 2 2 2 2 1 1 1 2 2 1 1 2 4 6 5 4 3 3 3 3 2 2
4 3 3 3 2 2 2 2 2 3 3 3 3 3 2 2 2 2 2 2 2 2 1 2 2 2 1 1 0 1 1 1 1 2 4 5 5 5 4 4 4 4 3
4 4 4 3 3 2 2 2 2 3 3 3 2 3 3 3 3 2 2 2 2 2 2 2 2 2 2 1 1 1 1 1 2 2 2 3 5 5 6 6 6 6 5
3 3 3 3 3 3 3 2 2 3 3 3 3 3 3 4 3 3 3 2 2 2 2 2 2 2 2 1 2 2 2 2 2 2 1 2 3 4 5 7 7 7 6
3 3 3 3 3 3 3 3 2 3 3 3 4 4 4 4 4 4 4 4 4 3 3 3 3 3 3 3 2 2 2 1 2 2 1 2 3 3 4 6 7 7 7
3 3 3 3 3 3 3 3 4 3 4 4 5 4 4 3 3 4 5 5 5 6 5 4 4 4 3 3 2 2 2 3 3 3 1 3 2 3 4 6 8 8 8
3 3 3 3 2 3 3 4 4 4 4 5 5 4 4 3 3 2 2 3 4 5 6 5 5 5 4 4 4 3 3 3 2 1 2 2 2 2 3 4 7 8 8
2 2 2 2 2 2 3 4 3 3 4 5 4 3 2 2 2 2 2 3 3 3 5 5 5 5 5 5 3 1 1 1 2 2 1 1 2 2 2 2 6 7 7
2 2 2 2 2 2 2 2 3 3 4 4 3 2 2 2 2 3 3 3 3 3 3 3 3 4 5 5 5 4 4 3 2 2 2 1 1 0 1 2 2 4 4
Wind_Direction
58 68 80 71 68 75 63 43 60 57 41 40 44 59 72 80 89 91 92 78 73 69 63 63 62 58 54 54 52 54 57 60 61 58 54 55 51 53 57 55 59 57 60
67 51 59 56 54 54 45 52 58 64 59 55 38 43 58 69 84 97 104 90 76 71 66 63 61 57 54 53 54 53 55 57 58 60 60 58 53 54 58 56 58 59 62
73 71 59 53 45 53 47 49 50 51 54 54 41 45 58 54 80 96 104 109 99 83 74 69 64 59 55 52 53 54 58 57 58 57 61 63 58 53 56 59 59 57 53
60 66 62 45 44 47 42 37 45 42 37 40 20 14 53 52 50 91 109 112 111 103 98 88 76 65 55 50 51 55 61 59 58 57 59 62 60 56 55 57 58 51 48
53 66 57 45 55 47 36 30 40 40 34 30 1 351 26 57 46 52 69 88 101 112 110 102 93 81 65 55 51 54 59 58 58 59 61 58 61 58 58 61 60 54 53
51 64 55 37 60 49 29 29 39 22 37 7 350 14 8 108 88 63 48 53 75 105 115 119 111 94 76 62 52 52 55 54 56 54 55 59 59 58 62 65 64 61 58
45 57 58 42 53 60 40 40 45 24 11 11 23 351 348 63 77 97 79 49 50 79 99 123 131 121 98 71 57 53 51 50 50 50 56 59 58 60 64 65 67 65 63
50 57 59 74 65 49 32 41 42 24 350 10 43 25 13 10 352 88 108 109 68 71 61 75 97 109 105 93 77 61 54 51 48 48 54 56 60 64 68 68 69 70 68
64 54 38 57 92 85 61 41 44 56 343 338 30 60 90 280 310 327 148 100 89 73 69 59 74 81 89 95 92 75 61 52 48 48 49 50 56 65 69 73 72 70 72
82 72 58 53 79 86 81 43 49 23 29 338 338 354 18 115 127 322 336 26 63 72 74 64 72 76 84 93 93 83 72 62 55 50 50 52 57 62 67 72 73 71 73
98 78 64 56 74 88 82 66 53 17 17 355 347 335 348 356 337 116 312 331 12 43 63 68 85 85 89 95 101 87 78 74 65 55 50 51 53 54 61 66 72 78 78
168 153 101 90 91 110 95 78 83 30 10 358 356 0 358 1 327 14 261 276 301 319 46 65 89 104 105 99 98 92 85 85 71 59 50 46 47 51 54 59 67 86 89
177 204 174 167 158 137 120 99 93 111 28 12 351 341 353 344 2 1 338 294 315 289 91 78 113 114 112 108 108 116 121 105 93 80 66 53 44 39 47 60 64 79 84
178 192 178 174 165 139 134 136 98 108 75 334 316 333 344 343 12 16 344 360 327 321 345 238 72 109 112 124 132 147 158 152 135 116 92 71 56 47 49 56 64 69 70
183 179 184 176 172 146 147 153 174 172 343 316 305 317 327 332 2 351 356 31 153 293 298 283 335 143 118 131 139 160 165 183 171 160 149 119 92 62 66 71 56 50 55
173 189 195 182 174 168 169 148 200 252 196 266 272 276 295 291 315 309 303 305 300 204 271 285 287 257 127 122 157 203 192 199 189 193 194 193 211 221 169 131 85 46 46
179 196 193 187 184 183 176 168 199 206 218 228 245 246 271 265 263 278 282 298 296 259 261 287 303 304 90 150 148 221 196 189 201 209 209 209 196 196 204 211 201 170 132
192 196 191 198 201 193 185 184 208 220 221 230 237 224 232 248 251 261 262 267 263 247 216 265 290 292 269 210 182 193 189 214 205 219 219 209 201 210 215 215 209 203 187
193 195 205 210 213 205 203 207 214 230 226 224 226 225 225 222 242 242 241 252 257 264 235 245 271 276 267 234 186 264 205 214 259 231 219 212 216 221 228 224 216 215 207
194 201 202 206 209 219 224 229 223 237 248 246 235 231 221 218 220 233 239 245 247 249 251 247 258 258 251 257 172 233 266 258 254 247 217 223 224 227 234 234 223 215 215
202 200 200 205 213 219 228 225 236 247 246 251 255 253 234 217 217 226 236 226 223 232 239 234 245 255 266 261 237 234 237 253 261 219 200 224 215 215 227 229 225 220 220
207 199 206 209 224 242 236 238 251 258 256 249 254 257 246 223 235 240 241 232 217 214 221 225 237 236 245 241 245 249 224 234 264 243 203 251 210 222 220 214 212 212 216
209 210 215 213 225 233 229 247 255 254 252 251 247 249 259 239 223 218 237 237 238 238 232 223 225 237 242 239 227 247 235 223 240 229 199 251 236 235 227 213 207 209 209
208 213 219 218 222 233 233 253 265 259 257 259 251 242 239 240 237 219 219 231 234 234 235 234 229 237 233 219 211 224 241 243 274 252 175 234 243 253 252 205 210 209 210
213 205 196 198 218 246 241 247 248 250 258 263 261 248 235 241 245 215 216 236 248 258 249 239 242 242 248 245 224 204 245 233 259 257 228 204 244 266 259 234 214 206 207
209 191 188 197 209 231 240 250 247 251 257 261 258 255 253 255 243 215 223 230 239 254 261 260 261 258 247 239 231 208 204 213 233 253 234 195 249 285 291 261 186 190 204
Height
1526 1526 1526 1527 1527 1527 1527 1528 1528 1528 1528 1529 1529 1529 1529 1529 1528 1528 1528 1527 1527 1527 1526 1526 1526 1526 1526 1526 1525 1525 1525 1525 1525 1525 1525 1525 1525 1525 1525 1524 1524 1523 1524
1527 1527 1527 1527 1527 1528 1528 1528 1528 1528 1529 1529 1529 1530 1529 1529 1529 1529 1529 1528 1528 1527 1527 1527 1527 1526 1526 1526 1526 1526 1525 1525 1525 1525 1525 1525 1525 1525 1525 1525 1524 1524 1524
1527 1527 1527 1528 1528 1528 1528 1528 1529 1529 1529 1530 1530 1530 1530 1530 1530 1530 1529 1529 1528 1528 1527 1527 1527 1527 1527 1526 1526 1526 1525 1525 1525 1525 1525 1525 1525 1525 1525 1525 1524 1524 1523
1528 1528 1528 1528 1529 1528 1529 1529 1529 1529 1529 1529 1530 1530 1530 1531 1531 1531 1530 1530 1529 1528 1528 1528 1527 1527 1527 1526 1526 1526 1526 1526 1525 1525 1525 1525 1525 1525 1525 1525 1524 1523 1521
1528 1528 1528 1528 1529 1529 1529 1529 1529 1529 1529 1529 1530 1530 1531 1531 1531 1531 1531 1530 1529 1529 1528 1528 1528 1527 1527 1527 1527 1527 1526 1526 1526 1525 1525 1525 1525 1525 1525 1525 1524 1523 1520
1528 1527 1528 1528 1528 1528 1529 1529 1529 1529 1529 1529 1529 1530 1530 1531 1531 1531 1531 1531 1530 1529 1529 1528 1528 1528 1528 1527 1527 1527 1527 1526 1526 1526 1525 1525 1525 1525 1525 1525 1525 1523 1522
1527 1527 1528 1528 1528 1528 1528 1528 1529 1529 1529 1529 1530 1530 1530 1531 1531 1531 1531 1530 1530 1530 1529 1528 1528 1528 1528 1527 1527 1527 1527 1527 1526 1526 1526 1526 1526 1526 1526 1525 1525 1525 1524
1527 1527 1527 1527 1528 1528 1528 1528 1528 1529 1529 1530 1530 1530 1530 1532 1531 1531 1530 1530 1530 1530 1529 1529 1528 1528 1527 1527 1527 1527 1527 1527 1526 1526 1526 1526 1526 1526 1526 1525 1525 1525 1526
1526 1526 1526 1527 1527 1527 1527 1528 1528 1528 1529 1529 1530 1531 1530 1530 1530 1531 1531 1530 1530 1529 1529 1529 1529 1528 1527 1527 1527 1526 1526 1526 1526 1526 1526 1526 1526 1526 1526 1526 1526 1526 1526
1525 1525 1526 1526 1526 1526 1527 1527 1527 1528 1528 1529 1529 1529 1530 1530 1530 1530 1531 1530 1530 1529 1529 1529 1528 1528 1527 1526 1526 1526 1525 1525 1525 1525 1526 1525 1525 1525 1526 1526 1526 1526 1526
1524 1524 1524 1525 1525 1525 1526 1526 1526 1527 1527 1528 1528 1528 1529 1529 1529 1529 1529 1530 1529 1529 1528 1528 1528 1527 1527 1526 1526 1525 1525 1525 1525 1525 1525 1525 1525 1525 1525 1525 1525 1525 1526
1522 1523 1523 1523 1524 1524 1524 1525 1525 1525 1526 1526 1527 1528 1528 1528 1528 1528 1528 1528 1528 1528 1528 1527 1527 1526 1526 1526 1525 1525 1525 1524 1524 1524 1524 1524 1524 1525 1524 1525 1525 1525 1525
1521 1521 1522 1522 1522 1523 1523 1523 1523 1524 1524 1525 1525 1526 1526 1527 1527 1527 1527 1527 1527 1527 1527 1527 1526 1526 1525 1525 1525 1524 1524 1524 1523 1523 1523 1524 1524 1524 1524 1524 1524 1524 1524
1519 1520 1520 1521 1521 1521 1521 1522 1522 1522 1523 1523 1524 1524 1525 1525 1525 1526 1526 1526 1525 1526 1525 1525 1525 1525 1524 1524 1524 1523 1523 1523 1523 1522 1522 1523 1523 1523 1523 1523 1523 1523 1523
1518 1518 1519 1519 1519 1520 1520 1520 1520 1521 1521 1522 1522 1522 1523 1523 1524 1524 1524 1524 1525 1524 1524 1524 1523 1523 1523 1522 1522 1522 1521 1521 1521 1521 1521 1521 1522 1522 1521 1522 1522 1521 1522
1516 1516 1517 1517 1517 1518 1518 1518 1519 1519 1520 1520 1520 1521 1521 1521 1521 1522 1522 1522 1523 1523 1522 1522 1521 1521 1521 1521 1521 1520 1520 1520 1520 1520 1520 1520 1520 1520 1520 1520 1520 1521 1521
1513 1514 1514 1515 1515 1516 1516 1516 1517 1517 1517 1517 1518 1518 1519 1519 1519 1519 1519 1520 1520 1521 1520 1520 1519 1519 1519 1519 1519 1518 1518 1518 1518 1518 1518 1519 1519 1519 1518 1518 1519 1519 1519
1510 1511 1512 1512 1513 1513 1514 1514 1514 1515 1515 1515 1515 1516 1516 1516 1516 1517 1517 1517 1517 1518 1518 1517 1517 1517 1517 1517 1516 1516 1516 1516 1516 1516 1516 1517 1517 1517 1516 1517 1517 1517 1517
1508 1509 1509 1510 1510 1510 1511 1511 1511 1512 1512 1512 1512 1513 1513 1513 1513 1513 1514 1514 1514 1515 1515 1515 1514 1514 1515 1515 1514 1514 1514 1514 1514 1514 1514 1514 1514 1514 1514 1515 1515 1515 1515
1505 1506 1506 1507 1507 1508 1508 1508 1508 1508 1508 1509 1509 1510 1510 1510 1510 1510 1510 1510 1511 1511 1511 1512 1511 1511 1512 1512 1512 1512 1511 1512 1512 1512 1512 1512 1512 1512 1512 1512 1512 1513 1513
1502 1503 1503 1503 1504 1504 1504 1504 1505 1505 1505 1505 1506 1506 1506 1506 1506 1507 1507 1507 1508 1508 1508 1508 1508 1508 1508 1509 1509 1509 1509 1509 1509 1509 1509 1509 1509 1509 1510 1510 1510 1510 1511
1499 1499 1500 1500 1500 1501 1501 1501 1501 1501 1501 1502 1502 1502 1502 1503 1503 1503 1503 1504 1504 1504 1504 1504 1504 1505 1505 1505 1506 1506 1506 1506 1506 1507 1507 1506 1507 1507 1507 1507 1507 1507 1508
1495 1496 1496 1496 1496 1497 1497 1497 1497 1497 1498 1498 1498 1498 1498 1498 1499 1499 1499 1499 1500 1500 1501 1501 1501 1501 1501 1502 1502 1503 1503 1503 1503 1504 1504 1503 1504 1503 1504 1504 1504 1505 1505
1491 1492 1492 1492 1493 1493 1493 1493 1493 1493 1493 1494 1494 1494 1494 1494 1494 1494 1494 1495 1495 1496 1496 1497 1497 1497 1498 1499 1499 1500 1500 1500 1500 1501 1501 1500 1500 1500 1501 1501 1501 1501 1502
1487 1487 1488 1488 1488 1488 1489 1489 1489 1489 1489 1489 1490 1490 1490 1490 1490 1490 1491 1491 1491 1491 1492 1493 1494 1494 1494 1495 1495 1496 1496 1496 1496 1497 1497 1497 1497 1496 1496 1497 1497 1498 1499
1483 1484 1484 1485 1485 1484 1485 1485 1485 1485 1485 1485 1485 1486 1486 1486 1486 1486 1487 1487 1487 1487 1488 1488 1489 1490 1490 1490 1491 1492 1492 1492 1492 1493 1494 1494 1494 1494 1493 1493 1494 1495 1495